QPF
0.00 0.00 0.00 0.00 0.00 0.00 0.00 0.00 0.00 0.00 0.00 0.00 0.00 0.00 0.00 0.00 0.00 0.00 0.00 0.00 0.00 0.00 0.00 0.00 0.00 0.00 0.00 0.00 0.00 0.00 0.00 0.00 0.00 0.00 0.00 0.00 0.00 0.00 0.00 0.01 0.03 0.04 0.07 0.10
0.00 0.00 0.00 0.00 0.00 0.00 0.00 0.00 0.00 0.00 0.00 0.00 0.00 0.00 0.00 0.00 0.00 0.00 0.00 0.00 0.00 0.00 0.00 0.00 0.00 0.00 0.00 0.00 0.00 0.00 0.00 0.00 0.00 0.00 0.00 0.00 0.00 0.00 0.00 0.01 0.02 0.04 0.05 0.08
0.00 0.00 0.00 0.00 0.00 0.00 0.00 0.00 0.00 0.00 0.00 0.00 0.00 0.00 0.00 0.00 0.00 0.00 0.00 0.00 0.00 0.00 0.00 0.00 0.00 0.00 0.00 0.00 0.00 0.00 0.00 0.00 0.00 0.00 0.00 0.01 0.01 0.00 0.01 0.01 0.02 0.03 0.05 0.06
0.00 0.00 0.00 0.00 0.00 0.00 0.00 0.00 0.00 0.00 0.00 0.00 0.00 0.00 0.00 0.00 0.00 0.00 0.00 0.00 0.00 0.00 0.00 0.00 0.00 0.00 0.00 0.00 0.00 0.00 0.00 0.00 0.00 0.01 0.01 0.01 0.01 0.01 0.01 0.01 0.02 0.03 0.04 0.05
0.00 0.00 0.00 0.00 0.00 0.00 0.00 0.00 0.00 0.00 0.00 0.00 0.00 0.00 0.00 0.00 0.00 0.00 0.00 0.00 0.00 0.00 0.00 0.00 0.00 0.00 0.00 0.00 0.00 0.00 0.00 0.00 0.00 0.01 0.02 0.02 0.01 0.01 0.02 0.02 0.02 0.03 0.04 0.05
0.00 0.00 0.00 0.00 0.00 0.00 0.00 0.00 0.00 0.00 0.00 0.00 0.00 0.00 0.00 0.00 0.00 0.00 0.00 0.00 0.00 0.00 0.00 0.00 0.00 0.00 0.00 0.00 0.00 0.00 0.01 0.01 0.01 0.01 0.02 0.03 0.02 0.03 0.04 0.04 0.03 0.04 0.03 0.04
0.00 0.00 0.00 0.00 0.00 0.00 0.00 0.00 0.00 0.00 0.00 0.00 0.00 0.00 0.00 0.00 0.00 0.00 0.00 0.00 0.00 0.00 0.00 0.00 0.00 0.00 0.00 0.00 0.00 0.00 0.01 0.01 0.01 0.01 0.02 0.02 0.02 0.03 0.04 0.03 0.05 0.08 0.08 0.06
0.00 0.00 0.00 0.00 0.00 0.00 0.00 0.00 0.00 0.00 0.00 0.00 0.00 0.00 0.00 0.00 0.00 0.00 0.00 0.00 0.00 0.00 0.00 0.00 0.00 0.00 0.00 0.00 0.00 0.00 0.00 0.01 0.01 0.01 0.02 0.03 0.04 0.06 0.06 0.07 0.07 0.09 0.10 0.10
0.00 0.00 0.00 0.00 0.00 0.00 0.00 0.00 0.00 0.00 0.00 0.00 0.00 0.00 0.00 0.00 0.00 0.00 0.00 0.00 0.00 0.00 0.00 0.00 0.00 0.00 0.00 0.00 0.00 0.00 0.00 0.01 0.01 0.02 0.03 0.04 0.07 0.10 0.11 0.10 0.12 0.12 0.14 0.14
0.00 0.00 0.00 0.00 0.00 0.00 0.00 0.00 0.00 0.00 0.00 0.00 0.00 0.00 0.00 0.00 0.00 0.00 0.00 0.00 0.00 0.00 0.00 0.00 0.00 0.00 0.00 0.00 0.00 0.00 0.00 0.01 0.01 0.01 0.03 0.05 0.08 0.08 0.09 0.12 0.14 0.15 0.19 0.21
0.00 0.00 0.00 0.00 0.00 0.00 0.00 0.00 0.00 0.00 0.00 0.00 0.00 0.00 0.00 0.00 0.00 0.00 0.00 0.00 0.00 0.00 0.00 0.00 0.00 0.00 0.00 0.00 0.00 0.00 0.00 0.01 0.02 0.01 0.03 0.05 0.07 0.06 0.06 0.11 0.12 0.13 0.17 0.21
0.00 0.00 0.00 0.00 0.00 0.00 0.00 0.00 0.00 0.00 0.00 0.00 0.00 0.00 0.00 0.00 0.00 0.00 0.00 0.00 0.00 0.00 0.00 0.00 0.00 0.00 0.00 0.00 0.00 0.00 0.01 0.02 0.02 0.01 0.02 0.03 0.04 0.05 0.04 0.06 0.07 0.06 0.08 0.11
0.00 0.00 0.00 0.00 0.00 0.00 0.00 0.00 0.00 0.00 0.00 0.00 0.00 0.00 0.00 0.00 0.00 0.00 0.00 0.00 0.00 0.00 0.00 0.00 0.00 0.00 0.00 0.00 0.00 0.00 0.00 0.01 0.01 0.00 0.01 0.01 0.02 0.02 0.02 0.03 0.04 0.04 0.04 0.05
0.00 0.00 0.00 0.00 0.00 0.00 0.00 0.00 0.00 0.00 0.00 0.00 0.00 0.00 0.00 0.00 0.00 0.00 0.00 0.00 0.00 0.00 0.00 0.00 0.00 0.00 0.00 0.00 0.00 0.00 0.00 0.00 0.00 0.00 0.00 0.00 0.01 0.01 0.01 0.01 0.02 0.03 0.03 0.03
0.00 0.00 0.00 0.00 0.00 0.00 0.00 0.00 0.00 0.00 0.00 0.00 0.00 0.00 0.00 0.00 0.00 0.00 0.00 0.00 0.00 0.00 0.00 0.00 0.00 0.00 0.00 0.00 0.00 0.00 0.00 0.00 0.00 0.00 0.00 0.00 0.00 0.00 0.00 0.01 0.01 0.01 0.01 0.01
0.00 0.00 0.00 0.00 0.00 0.00 0.00 0.00 0.00 0.00 0.00 0.00 0.00 0.00 0.00 0.00 0.00 0.00 0.00 0.00 0.00 0.00 0.00 0.00 0.00 0.00 0.00 0.00 0.00 0.00 0.00 0.00 0.00 0.00 0.00 0.00 0.00 0.00 0.00 0.00 0.00 0.00 0.00 0.00
0.00 0.00 0.00 0.00 0.00 0.00 0.00 0.00 0.00 0.00 0.00 0.00 0.00 0.00 0.00 0.00 0.00 0.00 0.00 0.00 0.00 0.00 0.00 0.00 0.00 0.00 0.00 0.00 0.00 0.00 0.00 0.00 0.00 0.00 0.00 0.00 0.00 0.00 0.00 0.00 0.00 0.00 0.00 0.00
0.00 0.00 0.00 0.00 0.00 0.00 0.00 0.00 0.00 0.00 0.00 0.00 0.00 0.00 0.00 0.00 0.00 0.00 0.00 0.00 0.00 0.00 0.00 0.00 0.00 0.00 0.00 0.00 0.00 0.00 0.00 0.00 0.00 0.00 0.00 0.00 0.00 0.00 0.00 0.00 0.00 0.00 0.00 0.00
0.00 0.00 0.00 0.00 0.00 0.00 0.00 0.00 0.00 0.00 0.00 0.00 0.00 0.00 0.00 0.00 0.00 0.00 0.00 0.00 0.00 0.00 0.00 0.00 0.00 0.00 0.00 0.00 0.00 0.00 0.00 0.00 0.00 0.00 0.00 0.00 0.00 0.00 0.00 0.00 0.00 0.00 0.00 0.00
0.00 0.00 0.00 0.00 0.00 0.00 0.00 0.00 0.00 0.00 0.00 0.00 0.00 0.00 0.00 0.00 0.00 0.00 0.00 0.00 0.00 0.00 0.00 0.00 0.00 0.00 0.00 0.00 0.00 0.00 0.00 0.00 0.00 0.00 0.00 0.00 0.00 0.00 0.00 0.00 0.00 0.00 0.00 0.00
0.00 0.00 0.00 0.00 0.00 0.00 0.00 0.00 0.00 0.00 0.00 0.00 0.00 0.00 0.00 0.00 0.00 0.00 0.00 0.00 0.00 0.00 0.00 0.00 0.00 0.00 0.00 0.00 0.00 0.00 0.00 0.00 0.00 0.00 0.00 0.00 0.00 0.00 0.00 0.00 0.00 0.00 0.00 0.00
0.00 0.00 0.00 0.00 0.00 0.00 0.00 0.00 0.00 0.00 0.00 0.00 0.00 0.00 0.00 0.00 0.00 0.00 0.00 0.00 0.00 0.00 0.00 0.00 0.00 0.00 0.00 0.00 0.00 0.00 0.00 0.00 0.00 0.00 0.00 0.00 0.00 0.00 0.00 0.00 0.00 0.00 0.00 0.01
0.00 0.00 0.00 0.00 0.00 0.00 0.00 0.00 0.00 0.00 0.00 0.00 0.00 0.00 0.00 0.00 0.00 0.00 0.00 0.00 0.00 0.00 0.00 0.00 0.00 0.00 0.00 0.00 0.00 0.00 0.00 0.00 0.00 0.00 0.00 0.00 0.00 0.00 0.00 0.00 0.00 0.00 0.00 0.00
0.00 0.00 0.00 0.00 0.00 0.00 0.00 0.00 0.00 0.00 0.00 0.00 0.00 0.00 0.00 0.00 0.00 0.00 0.00 0.00 0.00 0.00 0.00 0.00 0.00 0.00 0.00 0.00 0.00 0.00 0.00 0.00 0.00 0.00 0.00 0.00 0.00 0.00 0.00 0.00 0.00 0.00 0.00 0.00
0.00 0.00 0.00 0.00 0.00 0.00 0.00 0.00 0.00 0.00 0.00 0.00 0.00 0.00 0.00 0.00 0.00 0.00 0.00 0.00 0.00 0.00 0.00 0.00 0.00 0.00 0.00 0.00 0.00 0.00 0.00 0.00 0.00 0.00 0.00 0.00 0.00 0.00 0.00 0.00 0.00 0.00 0.00 0.00
0.00 0.00 0.00 0.00 0.00 0.00 0.00 0.00 0.00 0.00 0.00 0.00 0.00 0.00 0.00 0.00 0.00 0.00 0.00 0.00 0.00 0.00 0.00 0.00 0.00 0.00 0.00 0.00 0.00 0.00 0.00 0.00 0.00 0.00 0.00 0.00 0.00 0.00 0.00 0.00 0.00 0.00 0.00 0.00
MSLP
1014.88 1016.03 1016.98 1017.70 1018.22 1018.59 1018.90 1019.22 1019.60 1020.05 1020.57 1021.10 1021.59 1021.97 1022.19 1022.24 1022.11 1021.85 1021.48 1021.06 1020.63 1020.21 1019.82 1019.44 1019.07 1018.69 1018.29 1017.85 1017.39 1016.91 1016.45 1016.00 1015.60 1015.23 1014.90 1014.59 1014.30 1014.01 1013.72 1013.45 1013.19 1012.98 1012.84 1012.77
1016.10 1017.12 1017.91 1018.46 1018.81 1019.05 1019.27 1019.53 1019.90 1020.36 1020.90 1021.45 1021.94 1022.32 1022.52 1022.53 1022.36 1022.06 1021.66 1021.23 1020.80 1020.39 1020.01 1019.64 1019.27 1018.87 1018.44 1017.96 1017.46 1016.94 1016.44 1015.97 1015.54 1015.16 1014.81 1014.49 1014.17 1013.85 1013.54 1013.23 1012.95 1012.72 1012.56 1012.50
1017.11 1017.98 1018.60 1018.99 1019.22 1019.38 1019.56 1019.82 1020.20 1020.70 1021.26 1021.82 1022.29 1022.62 1022.77 1022.71 1022.47 1022.11 1021.68 1021.23 1020.80 1020.41 1020.05 1019.71 1019.35 1018.96 1018.53 1018.04 1017.52 1016.99 1016.47 1015.99 1015.54 1015.15 1014.78 1014.43 1014.08 1013.72 1013.36 1013.01 1012.69 1012.44 1012.26 1012.18
1017.85 1018.56 1019.03 1019.30 1019.47 1019.60 1019.79 1020.10 1020.54 1021.09 1021.68 1022.22 1022.66 1022.91 1022.96 1022.80 1022.46 1022.02 1021.53 1021.05 1020.62 1020.24 1019.91 1019.61 1019.29 1018.93 1018.53 1018.06 1017.56 1017.03 1016.52 1016.04 1015.59 1015.18 1014.78 1014.40 1014.01 1013.61 1013.20 1012.80 1012.44 1012.15 1011.93 1011.82
1018.37 1018.91 1019.25 1019.45 1019.59 1019.76 1020.03 1020.43 1020.96 1021.56 1022.17 1022.70 1023.06 1023.21 1023.13 1022.83 1022.38 1021.83 1021.27 1020.75 1020.30 1019.94 1019.64 1019.39 1019.12 1018.81 1018.45 1018.03 1017.56 1017.07 1016.57 1016.10 1015.65 1015.23 1014.82 1014.41 1013.98 1013.54 1013.08 1012.63 1012.22 1011.87 1011.61 1011.45
1018.72 1019.11 1019.35 1019.51 1019.68 1019.93 1020.31 1020.83 1021.45 1022.12 1022.74 1023.23 1023.50 1023.53 1023.30 1022.86 1022.27 1021.61 1020.97 1020.40 1019.94 1019.59 1019.32 1019.11 1018.90 1018.65 1018.34 1017.97 1017.54 1017.09 1016.62 1016.16 1015.73 1015.30 1014.88 1014.45 1013.99 1013.51 1013.01 1012.52 1012.06 1011.66 1011.35 1011.12
1019.01 1019.26 1019.43 1019.59 1019.81 1020.16 1020.65 1021.29 1022.01 1022.73 1023.34 1023.78 1023.95 1023.85 1023.48 1022.89 1022.16 1021.40 1020.69 1020.08 1019.60 1019.26 1019.03 1018.86 1018.69 1018.50 1018.24 1017.92 1017.54 1017.12 1016.68 1016.24 1015.82 1015.39 1014.97 1014.52 1014.05 1013.55 1013.03 1012.51 1012.01 1011.57 1011.20 1010.92
1019.29 1019.43 1019.55 1019.72 1020.00 1020.45 1021.05 1021.79 1022.58 1023.32 1023.91 1024.27 1024.35 1024.12 1023.62 1022.91 1022.08 1021.24 1020.48 1019.84 1019.36 1019.03 1018.83 1018.68 1018.56 1018.40 1018.18 1017.90 1017.56 1017.17 1016.75 1016.34 1015.92 1015.51 1015.08 1014.64 1014.17 1013.67 1013.14 1012.62 1012.11 1011.64 1011.23 1010.89
1019.56 1019.63 1019.72 1019.92 1020.26 1020.78 1021.46 1022.25 1023.07 1023.79 1024.34 1024.62 1024.60 1024.27 1023.67 1022.88 1021.99 1021.12 1020.34 1019.70 1019.22 1018.91 1018.72 1018.61 1018.50 1018.37 1018.18 1017.92 1017.61 1017.24 1016.85 1016.45 1016.05 1015.65 1015.24 1014.81 1014.36 1013.87 1013.37 1012.86 1012.35 1011.87 1011.44 1011.06
1019.79 1019.83 1019.93 1020.15 1020.53 1021.10 1021.81 1022.60 1023.39 1024.06 1024.53 1024.73 1024.62 1024.22 1023.57 1022.75 1021.86 1020.99 1020.23 1019.61 1019.17 1018.88 1018.70 1018.60 1018.50 1018.38 1018.21 1017.97 1017.67 1017.32 1016.95 1016.57 1016.19 1015.81 1015.42 1015.02 1014.60 1014.15 1013.68 1013.20 1012.72 1012.26 1011.82 1011.42
1019.93 1019.98 1020.10 1020.35 1020.76 1021.33 1022.02 1022.76 1023.47 1024.05 1024.43 1024.54 1024.36 1023.92 1023.26 1022.46 1021.62 1020.81 1020.10 1019.54 1019.13 1018.86 1018.70 1018.59 1018.50 1018.38 1018.21 1017.98 1017.70 1017.38 1017.04 1016.69 1016.34 1015.98 1015.63 1015.26 1014.88 1014.47 1014.05 1013.61 1013.17 1012.73 1012.31 1011.90
1019.93 1020.03 1020.20 1020.48 1020.90 1021.43 1022.06 1022.71 1023.30 1023.75 1024.01 1024.04 1023.81 1023.36 1022.74 1022.00 1021.24 1020.53 1019.91 1019.41 1019.04 1018.80 1018.64 1018.52 1018.42 1018.29 1018.13 1017.92 1017.66 1017.38 1017.08 1016.77 1016.46 1016.15 1015.83 1015.50 1015.16 1014.79 1014.41 1014.02 1013.62 1013.21 1012.80 1012.40
1019.82 1019.99 1020.22 1020.53 1020.93 1021.41 1021.93 1022.44 1022.89 1023.20 1023.34 1023.28 1023.02 1022.59 1022.03 1021.39 1020.75 1020.14 1019.62 1019.19 1018.87 1018.64 1018.48 1018.35 1018.23 1018.10 1017.94 1017.76 1017.54 1017.32 1017.07 1016.82 1016.56 1016.29 1016.01 1015.72 1015.40 1015.07 1014.72 1014.36 1013.99 1013.61 1013.23 1012.84
1019.65 1019.91 1020.19 1020.52 1020.88 1021.27 1021.67 1022.03 1022.30 1022.46 1022.48 1022.35 1022.08 1021.68 1021.20 1020.68 1020.16 1019.67 1019.24 1018.89 1018.60 1018.38 1018.20 1018.05 1017.92 1017.78 1017.65 1017.50 1017.34 1017.18 1017.01 1016.83 1016.63 1016.41 1016.17 1015.90 1015.60 1015.29 1014.95 1014.60 1014.25 1013.89 1013.52 1013.15
1019.53 1019.86 1020.18 1020.50 1020.80 1021.09 1021.34 1021.52 1021.62 1021.63 1021.54 1021.34 1021.07 1020.72 1020.33 1019.93 1019.53 1019.16 1018.82 1018.52 1018.27 1018.04 1017.85 1017.67 1017.52 1017.39 1017.28 1017.18 1017.09 1017.00 1016.91 1016.81 1016.67 1016.51 1016.30 1016.05 1015.76 1015.44 1015.10 1014.75 1014.39 1014.03 1013.67 1013.30
1019.54 1019.91 1020.24 1020.51 1020.74 1020.89 1020.98 1020.99 1020.92 1020.78 1020.59 1020.34 1020.07 1019.78 1019.48 1019.19 1018.91 1018.65 1018.39 1018.15 1017.91 1017.67 1017.46 1017.27 1017.11 1016.98 1016.90 1016.85 1016.83 1016.83 1016.82 1016.79 1016.72 1016.60 1016.42 1016.18 1015.89 1015.56 1015.20 1014.83 1014.45 1014.08 1013.71 1013.35
1019.74 1020.10 1020.39 1020.59 1020.70 1020.71 1020.62 1020.46 1020.22 1019.95 1019.67 1019.39 1019.12 1018.89 1018.69 1018.51 1018.34 1018.17 1017.99 1017.79 1017.56 1017.33 1017.10 1016.90 1016.73 1016.62 1016.57 1016.57 1016.62 1016.69 1016.76 1016.80 1016.78 1016.70 1016.54 1016.31 1016.01 1015.66 1015.28 1014.88 1014.49 1014.09 1013.71 1013.34
1020.10 1020.41 1020.62 1020.71 1020.67 1020.52 1020.26 1019.92 1019.54 1019.15 1018.79 1018.48 1018.24 1018.07 1017.95 1017.88 1017.81 1017.73 1017.62 1017.46 1017.27 1017.04 1016.82 1016.61 1016.45 1016.35 1016.33 1016.38 1016.48 1016.61 1016.73 1016.83 1016.85 1016.80 1016.66 1016.44 1016.14 1015.78 1015.39 1014.97 1014.56 1014.15 1013.76 1013.39
1020.54 1020.76 1020.85 1020.79 1020.60 1020.27 1019.84 1019.34 1018.83 1018.35 1017.93 1017.61 1017.39 1017.28 1017.25 1017.26 1017.29 1017.30 1017.26 1017.16 1017.00 1016.81 1016.59 1016.40 1016.26 1016.18 1016.19 1016.27 1016.40 1016.57 1016.73 1016.86 1016.91 1016.88 1016.76 1016.55 1016.26 1015.92 1015.53 1015.13 1014.72 1014.32 1013.93 1013.55
1020.92 1021.02 1020.97 1020.77 1020.41 1019.92 1019.34 1018.71 1018.09 1017.53 1017.07 1016.74 1016.56 1016.50 1016.54 1016.63 1016.75 1016.84 1016.87 1016.84 1016.74 1016.59 1016.42 1016.25 1016.14 1016.09 1016.11 1016.21 1016.36 1016.54 1016.72 1016.85 1016.92 1016.91 1016.81 1016.62 1016.37 1016.06 1015.71 1015.34 1014.97 1014.60 1014.23 1013.87
1021.12 1021.11 1020.93 1020.59 1020.08 1019.46 1018.75 1018.02 1017.32 1016.70 1016.22 1015.90 1015.73 1015.71 1015.81 1015.98 1016.16 1016.32 1016.43 1016.47 1016.43 1016.34 1016.22 1016.11 1016.03 1016.01 1016.06 1016.16 1016.31 1016.49 1016.65 1016.78 1016.85 1016.84 1016.77 1016.62 1016.41 1016.16 1015.89 1015.59 1015.29 1014.97 1014.65 1014.33
1021.09 1020.98 1020.69 1020.24 1019.63 1018.90 1018.11 1017.31 1016.56 1015.92 1015.43 1015.11 1014.96 1014.97 1015.09 1015.30 1015.53 1015.74 1015.91 1016.01 1016.04 1016.02 1015.97 1015.91 1015.88 1015.89 1015.96 1016.06 1016.20 1016.35 1016.50 1016.60 1016.66 1016.67 1016.61 1016.51 1016.37 1016.21 1016.02 1015.82 1015.61 1015.38 1015.13 1014.85
1020.83 1020.66 1020.30 1019.78 1019.11 1018.34 1017.51 1016.69 1015.92 1015.28 1014.78 1014.46 1014.31 1014.31 1014.44 1014.65 1014.89 1015.13 1015.33 1015.47 1015.56 1015.60 1015.61 1015.62 1015.64 1015.69 1015.76 1015.87 1016.00 1016.12 1016.24 1016.32 1016.37 1016.37 1016.35 1016.30 1016.23 1016.15 1016.07 1015.98 1015.87 1015.74 1015.57 1015.37
1020.43 1020.24 1019.87 1019.33 1018.65 1017.88 1017.06 1016.25 1015.50 1014.87 1014.38 1014.04 1013.87 1013.85 1013.93 1014.10 1014.31 1014.52 1014.72 1014.87 1014.99 1015.08 1015.15 1015.20 1015.27 1015.36 1015.46 1015.57 1015.68 1015.79 1015.87 1015.94 1015.97 1015.99 1015.99 1015.98 1015.98 1015.99 1016.01 1016.02 1016.02 1015.98 1015.91 1015.77
1020.05 1019.87 1019.51 1019.00 1018.36 1017.63 1016.86 1016.10 1015.39 1014.78 1014.29 1013.94 1013.72 1013.63 1013.64 1013.72 1013.85 1013.99 1014.13 1014.26 1014.37 1014.47 1014.57 1014.67 1014.77 1014.89 1015.02 1015.14 1015.25 1015.35 1015.42 1015.48 1015.51 1015.54 1015.56 1015.60 1015.66 1015.74 1015.83 1015.93 1016.02 1016.07 1016.06 1016.00
1019.81 1019.67 1019.36 1018.90 1018.32 1017.67 1016.97 1016.28 1015.63 1015.05 1014.56 1014.18 1013.90 1013.71 1013.61 1013.57 1013.56 1013.59 1013.63 1013.68 1013.74 1013.81 1013.91 1014.02 1014.15 1014.29 1014.44 1014.58 1014.71 1014.82 1014.90 1014.96 1015.01 1015.06 1015.11 1015.19 1015.29 1015.42 1015.56 1015.72 1015.85 1015.96 1016.02 1016.01
Thickness
5780 5759 5746 5753 5756 5750 5742 5729 5718 5719 5727 5712 5697 5690 5691 5694 5689 5683 5679 5676 5675 5675 5677 5677 5677 5676 5675 5675 5674 5675 5676 5678 5680 5683 5685 5688 5692 5698 5703 5708 5712 5716 5720 5724
5753 5748 5760 5764 5757 5745 5734 5718 5713 5717 5723 5707 5689 5684 5687 5687 5684 5680 5675 5672 5671 5670 5669 5669 5669 5668 5667 5666 5666 5667 5667 5669 5671 5674 5676 5680 5683 5688 5693 5698 5703 5707 5711 5715
5746 5751 5764 5753 5741 5733 5724 5715 5711 5708 5711 5702 5684 5673 5677 5680 5681 5678 5674 5671 5669 5667 5664 5663 5662 5661 5660 5659 5659 5659 5660 5662 5664 5667 5669 5672 5675 5679 5682 5686 5691 5697 5702 5706
5748 5755 5751 5739 5733 5729 5715 5725 5720 5711 5693 5679 5682 5655 5665 5670 5670 5669 5667 5665 5664 5663 5662 5660 5659 5657 5655 5654 5654 5654 5654 5656 5658 5660 5661 5662 5664 5666 5670 5675 5680 5686 5692 5697
5740 5744 5737 5730 5731 5731 5722 5728 5718 5709 5694 5681 5678 5658 5657 5665 5661 5663 5664 5664 5664 5662 5661 5658 5657 5655 5654 5652 5651 5650 5650 5651 5652 5653 5654 5655 5656 5659 5663 5667 5671 5677 5682 5688
5743 5749 5742 5735 5737 5734 5728 5716 5704 5690 5678 5665 5675 5660 5654 5656 5663 5664 5665 5664 5663 5662 5661 5658 5657 5655 5652 5651 5649 5648 5646 5647 5648 5648 5649 5650 5651 5653 5656 5659 5663 5667 5673 5678
5727 5733 5740 5740 5725 5723 5714 5688 5668 5664 5654 5658 5676 5665 5659 5669 5673 5670 5666 5665 5665 5663 5660 5658 5656 5653 5651 5649 5648 5646 5644 5644 5645 5645 5645 5646 5647 5649 5650 5653 5656 5660 5664 5669
5708 5705 5726 5731 5721 5711 5708 5690 5666 5655 5651 5658 5671 5662 5665 5678 5678 5676 5672 5669 5667 5664 5661 5659 5657 5654 5652 5650 5648 5646 5644 5642 5643 5643 5643 5644 5645 5646 5647 5649 5651 5654 5658 5662
5705 5704 5728 5732 5730 5720 5706 5693 5689 5668 5666 5658 5661 5665 5672 5678 5675 5673 5671 5669 5667 5666 5665 5662 5660 5657 5654 5651 5649 5647 5645 5643 5642 5641 5642 5642 5644 5644 5644 5646 5648 5649 5653 5657
5721 5706 5718 5728 5726 5723 5715 5703 5680 5670 5659 5649 5660 5662 5658 5668 5670 5672 5671 5670 5669 5669 5666 5664 5661 5659 5656 5654 5651 5649 5647 5644 5642 5641 5641 5641 5641 5642 5642 5643 5643 5645 5647 5651
5730 5708 5711 5716 5710 5707 5707 5700 5683 5667 5661 5651 5645 5657 5681 5677 5677 5674 5673 5674 5673 5671 5668 5666 5664 5662 5659 5656 5653 5650 5647 5645 5643 5641 5640 5639 5639 5639 5639 5639 5639 5640 5642 5645
5728 5704 5695 5707 5717 5722 5714 5703 5686 5670 5666 5659 5648 5660 5694 5687 5684 5680 5678 5678 5678 5676 5672 5669 5667 5664 5660 5657 5654 5651 5648 5646 5644 5642 5640 5639 5637 5637 5636 5636 5636 5637 5638 5640
5729 5708 5690 5695 5700 5711 5710 5709 5699 5679 5667 5661 5653 5667 5693 5689 5686 5685 5682 5681 5680 5678 5675 5671 5668 5665 5662 5659 5656 5653 5650 5647 5645 5643 5640 5638 5636 5635 5634 5633 5633 5634 5634 5635
5732 5712 5701 5697 5697 5707 5707 5707 5705 5687 5669 5667 5671 5680 5691 5689 5687 5686 5685 5685 5683 5680 5677 5674 5670 5667 5665 5662 5659 5655 5652 5649 5646 5643 5640 5637 5635 5633 5632 5631 5630 5630 5630 5631
5731 5718 5721 5718 5724 5723 5718 5713 5707 5697 5688 5679 5686 5691 5696 5696 5694 5692 5691 5690 5687 5684 5681 5678 5674 5671 5668 5664 5661 5658 5654 5651 5647 5643 5640 5637 5635 5632 5630 5629 5627 5627 5626 5627
5730 5724 5724 5722 5727 5725 5720 5719 5713 5707 5705 5699 5699 5700 5712 5709 5702 5697 5695 5693 5689 5687 5685 5683 5680 5676 5672 5668 5664 5660 5655 5652 5648 5643 5639 5637 5634 5631 5628 5626 5625 5623 5622 5622
5726 5722 5714 5707 5721 5721 5710 5722 5719 5717 5719 5713 5703 5708 5714 5707 5704 5702 5700 5698 5695 5692 5689 5686 5683 5679 5675 5671 5667 5662 5658 5653 5649 5644 5640 5637 5633 5630 5626 5624 5622 5620 5618 5618
5727 5717 5704 5703 5711 5703 5721 5742 5739 5729 5729 5727 5725 5723 5718 5717 5714 5712 5709 5703 5700 5697 5693 5690 5687 5683 5680 5676 5671 5666 5660 5655 5650 5645 5641 5637 5633 5629 5625 5622 5620 5618 5616 5614
5733 5721 5705 5696 5699 5705 5729 5743 5742 5731 5728 5736 5730 5728 5724 5723 5716 5711 5715 5712 5707 5703 5698 5695 5692 5688 5684 5679 5674 5667 5661 5656 5651 5647 5643 5638 5634 5630 5625 5622 5619 5617 5614 5612
5726 5718 5704 5698 5701 5702 5723 5746 5750 5737 5723 5741 5738 5731 5725 5718 5700 5706 5719 5717 5712 5708 5704 5700 5696 5691 5686 5682 5676 5669 5662 5657 5653 5649 5645 5641 5636 5631 5627 5623 5620 5617 5614 5612
5715 5710 5701 5697 5696 5705 5734 5748 5744 5716 5720 5745 5744 5737 5729 5720 5720 5724 5725 5720 5716 5712 5708 5704 5699 5693 5689 5685 5678 5671 5665 5660 5658 5654 5649 5644 5639 5634 5630 5626 5622 5619 5615 5612
5710 5702 5698 5690 5693 5706 5745 5742 5730 5732 5746 5750 5748 5743 5736 5733 5732 5729 5726 5722 5718 5713 5710 5706 5699 5695 5692 5687 5681 5674 5668 5666 5662 5657 5652 5646 5642 5638 5634 5628 5624 5620 5616 5613
5717 5718 5711 5709 5716 5738 5746 5746 5751 5750 5748 5751 5749 5748 5742 5736 5732 5730 5726 5723 5719 5715 5711 5708 5702 5697 5694 5690 5685 5678 5674 5671 5666 5660 5655 5650 5645 5640 5636 5631 5626 5621 5617 5613
5726 5729 5724 5724 5733 5743 5746 5746 5749 5752 5752 5754 5753 5750 5744 5738 5734 5730 5727 5723 5720 5717 5713 5709 5704 5699 5695 5693 5689 5685 5681 5676 5669 5663 5658 5653 5648 5643 5638 5633 5628 5624 5619 5615
5711 5718 5719 5721 5728 5736 5743 5742 5745 5749 5751 5751 5751 5749 5744 5739 5734 5730 5726 5724 5721 5718 5715 5711 5706 5701 5699 5696 5692 5689 5685 5679 5672 5667 5662 5657 5652 5646 5641 5636 5631 5627 5623 5619
5693 5696 5700 5706 5714 5714 5722 5730 5737 5739 5741 5743 5744 5743 5742 5739 5735 5731 5727 5725 5722 5719 5715 5711 5707 5704 5701 5698 5694 5692 5688 5683 5676 5670 5665 5660 5655 5650 5645 5640 5635 5632 5628 5625